Location: Antoign�
(47.0844°N, 0.1131°W)
Time: 22:59:37
(UTC+00:00)

Cosmos 2219 Rocket - Pass Details

Date: 03 March 2021
Orbit: 826 x 848 km, 71.0° (Epoch: 20 April)

Event Time Altitude Azimuth Distance (km) Brightness Sun altitude
Rises 21:06:37 0° 230° (SW) 3,358 5.5 -33.3°
Reaches altitude 10° 21:09:12 10° 238° (WSW) 2,430 4.8 -33.7°
Maximum altitude 21:14:23 39° 306° (NW) 1,227 3.4 -34.4°
Drops below altitude 10° 21:19:39 10° 15° (NNE) 2,454 4.8 -35.2°
Sets 21:22:16 0° 24° (NNE) 3,395 5.5 -35.6°
